This demonstration page uses our WeatherBlox Daily Observations layout. Learn more.

Left ArrowRight Arrow

Hourly Observations for April 22, 2015

Temp ( °F °C ) Dew Point ( °F °C ) Humidity (%) Winds ( mph kmh ) Pressure ( in mb ) Visibility ( mi km ) Precip ( " mm )
12:16 am 00:16 Clear 48 9 23 -5 37 37 NW 6 9 29.74 1007 10 16.0934 N/A
12:36 am 00:36 Clear 48 9 23 -5 37 37 NW 7 11 29.74 1007 10 16.0934 N/A
12:56 am 00:56 Clear 48 9 23 -5 37 37 NW 5 7 29.74 1007 10 16.0934 N/A
1:16 am 01:16 Clear 48 9 27 -3 43 43 W 3 6 29.74 1007 10 16.0934 N/A
1:36 am 01:36 Partly Cloudy 46 8 25 -4 43 43 W 6 9 29.77 1008 10 16.0934 N/A
1:56 am 01:56 Partly Cloudy 46 8 25 -4 43 43 Calm 29.77 1008 10 16.0934 N/A
2:16 am 02:16 Partly Cloudy 48 9 21 -6 34 34 NW 8 13 29.74 1007 10 16.0934 N/A
2:36 am 02:36 Partly Cloudy 46 8 25 -4 43 43 WNW 14 22 29.77 1008 10 16.0934 N/A
2:56 am 02:56 Mostly Cloudy 46 8 27 -3 46 46 NW 13 20 29.8 1009 10 16.0934 N/A
3:16 am 03:16 Cloudy 43 6 32 0 66 66 NW 12 19 29.8 1009 7 11.26538 N/A
3:36 am 03:36 Cloudy 41 5 37 3 87 87 NW 7 11 29.8 1009 5 8.0467 N/A
3:56 am 03:56 Cloudy 41 5 39 4 93 93 WNW 8 13 29.77 1008 10 16.0934 N/A
4:16 am 04:16 Cloudy 41 5 41 5 100 100 W 7 11 29.77 1008 7 11.26538 N/A
4:36 am 04:36 Cloudy 41 5 N/A N/A W 9 15 29.8 1009 7 11.26538 N/A
4:56 am 04:56 Cloudy 41 5 N/A N/A WNW 10 17 29.77 1008 5 8.0467 N/A
5:16 am 05:16 Cloudy 39 4 N/A N/A W 12 19 29.77 1008 7 11.26538 N/A
5:36 am 05:36 Cloudy 39 4 N/A N/A W 9 15 29.77 1008 7 11.26538 N/A
5:55 am 05:55 Cloudy 39 4 N/A N/A W 10 17 29.77 1008 7 11.26538 N/A
6:16 am 06:16 Cloudy 39 4 N/A N/A W 16 26 29.77 1008 10 16.0934 N/A
6:36 am 06:36 Cloudy 39 4 N/A N/A W 15 24 29.77 1008 10 16.0934 N/A
6:55 am 06:55 Cloudy 39 4 N/A N/A W 12 19 29.77 1008 10 16.0934 N/A
7:16 am 07:16 Mostly Cloudy 39 4 N/A N/A W 10 17 29.77 1008 10 16.0934 N/A
7:36 am 07:36 Mostly Cloudy 41 5 N/A N/A W 14 22 29.8 1009 10 16.0934 N/A
7:55 am 07:55 Mostly Cloudy 41 5 N/A N/A W 14 22 29.8 1009 10 16.0934 N/A
8:16 am 08:16 Partly Cloudy 43 6 41 5 93 93 W 18 30 29.8 1009 10 16.0934 N/A
8:36 am 08:36 Mostly Cloudy 41 5 30 -1 66 66 W 22 35 29.8 1009 10 16.0934 N/A
8:55 am 08:55 Partly Cloudy 41 5 25 -4 53 53 W 26 43 29.83 1010 10 16.0934 N/A
9:16 am 09:16 Partly Cloudy 39 4 23 -5 52 52 WNW 16 26 29.83 1010 10 16.0934 N/A
9:36 am 09:36 Partly Cloudy 41 5 23 -5 49 49 WNW 22 35 29.83 1010 10 16.0934 N/A
9:55 am 09:55 Partly Cloudy 41 5 23 -5 49 49 WNW 20 31 29.85 1011 10 16.0934 N/A
10:16 am 10:16 Partly Cloudy 43 6 23 -5 46 46 WNW 22 35 29.85 1011 10 16.0934 N/A
10:36 am 10:36 Partly Cloudy 41 5 21 -6 45 45 WNW 23 37 29.85 1011 10 16.0934 N/A
10:55 am 10:55 Partly Cloudy 45 7 21 -6 39 39 W 24 39 29.85 1011 10 16.0934 N/A
11:16 am 11:16 Partly Cloudy 43 6 19 -7 39 39 WNW 18 30 29.85 1011 10 16.0934 N/A
11:36 am 11:36 Partly Cloudy 43 6 19 -7 39 39 W 21 33 29.85 1011 10 16.0934 N/A
11:56 am 11:56 Mostly Cloudy 43 6 19 -7 39 39 W 28 44 29.88 1012 10 16.0934 N/A
12:16 pm 12:16 Mostly Cloudy 43 6 19 -7 39 39 WNW 23 37 29.88 1012 10 16.0934 N/A
12:36 pm 12:36 Partly Cloudy 43 6 19 -7 39 39 W 21 33 29.88 1012 10 16.0934 N/A
12:56 pm 12:56 Partly Cloudy 45 7 21 -6 39 39 W 24 39 29.88 1012 10 16.0934 N/A
1:16 pm 13:16 Partly Cloudy 45 7 19 -7 37 37 W 24 39 29.91 1013 10 16.0934 N/A
1:36 pm 13:36 Partly Cloudy 45 7 19 -7 37 37 W 28 44 29.91 1013 10 16.0934 N/A
1:56 pm 13:56 Partly Cloudy 45 7 18 -8 34 34 W 24 39 29.91 1013 10 16.0934 N/A
2:16 pm 14:16 Partly Cloudy 45 7 18 -8 34 34 WNW 25 41 29.91 1013 10 16.0934 N/A
2:36 pm 14:36 Partly Cloudy 45 7 19 -7 37 37 W 22 35 29.91 1013 10 16.0934 N/A
2:56 pm 14:56 Partly Cloudy 45 7 19 -7 37 37 W 24 39 29.91 1013 10 16.0934 N/A
3:16 pm 15:16 Partly Cloudy 45 7 18 -8 34 34 W 28 44 29.91 1013 10 16.0934 N/A
3:36 pm 15:36 Sunny 46 8 19 -7 34 34 W 25 41 29.91 1013 10 16.0934 N/A
3:56 pm 15:56 Partly Cloudy 48 9 19 -7 32 32 W 21 33 29.91 1013 10 16.0934 N/A
4:16 pm 16:16 Partly Cloudy 46 8 18 -8 32 32 WNW 23 37 29.91 1013 10 16.0934 N/A
4:36 pm 16:36 Partly Cloudy 46 8 18 -8 32 32 WNW 20 31 29.91 1013 10 16.0934 N/A
4:56 pm 16:56 Partly Cloudy 46 8 18 -8 32 32 WNW 22 35 29.91 1013 10 16.0934 N/A
5:16 pm 17:16 Sunny 48 9 14 -10 25 25 WNW 22 35 29.91 1013 10 16.0934 N/A
5:36 pm 17:36 Sunny 50 10 16 -9 25 25 W 24 39 29.91 1013 10 16.0934 N/A
5:56 pm 17:56 Sunny 48 9 14 -10 25 25 W 22 35 29.91 1013 10 16.0934 N/A
6:16 pm 18:16 Sunny 48 9 12 -11 23 23 W 24 39 29.91 1013 10 16.0934 N/A
6:35 pm 18:35 Sunny 48 9 14 -10 25 25 W 23 37 29.91 1013 10 16.0934 N/A
6:56 pm 18:56 Sunny 48 9 12 -11 23 23 W 25 41 29.91 1013 10 16.0934 N/A
7:16 pm 19:16 Sunny 48 9 12 -11 23 23 W 17 28 29.91 1013 10 16.0934 N/A
7:35 pm 19:35 Partly Cloudy 48 9 10 -12 21 21 W 22 35 29.91 1013 10 16.0934 N/A
7:56 pm 19:56 Partly Cloudy 48 9 12 -11 23 23 W 17 28 29.91 1013 10 16.0934 N/A
8:16 pm 20:16 Sunny 46 8 10 -12 23 23 W 22 35 29.91 1013 10 16.0934 N/A
8:35 pm 20:35 Clear 46 8 12 -11 25 25 W 14 22 29.91 1013 10 16.0934 N/A
8:56 pm 20:56 Clear 45 7 12 -11 27 27 W 12 19 29.91 1013 10 16.0934 N/A
9:16 pm 21:16 Clear 45 7 14 -10 29 29 W 10 17 29.91 1013 10 16.0934 N/A
9:35 pm 21:35 Clear 45 7 14 -10 29 29 W 10 17 29.94 1014 10 16.0934 N/A
9:56 pm 21:56 Clear 43 6 14 -10 31 31 WNW 9 15 29.94 1014 10 16.0934 N/A
10:16 pm 22:16 Clear 43 6 14 -10 31 31 NW 7 11 29.94 1014 10 16.0934 N/A
10:36 pm 22:36 Clear 41 5 14 -10 33 33 NW 5 7 29.94 1014 10 16.0934 N/A
10:56 pm 22:56 Clear 41 5 14 -10 33 33 WNW 6 9 29.94 1014 10 16.0934 N/A
11:16 pm 23:16 Clear 39 4 16 -9 39 39 WNW 5 7 29.94 1014 10 16.0934 N/A
11:36 pm 23:36 Clear 39 4 16 -9 39 39 WNW 6 9 29.97 1015 10 16.0934 N/A
11:56 pm 23:56 Clear 39 4 16 -9 39 39 WNW 5 7 29.97 1015 10 16.0934 N/A

Powered by AerisWeather